• In Deutschland
  • Länderverzeichnis
  • Für 7 Tage
  • Wassertemperatur
  • Satellitenkarten
  • Wetterkarte
  • Widgets
  • user-avatar
    Anmelden

    Stündliche Wetter Sindelfingen

    Heute, 16 Dezember, Samstag

    Zeit Temperatur Niederschläge Wind Luftdruck Luftfeuchtigkeit
    00:00 -1°C° 0,2 mm 2 m/S 711 mmHg 89%
    01:00 -1°C° 0 mm 2 m/S 710 mmHg 88%
    02:00 -1°C° 0,1 mm 2 m/S 711 mmHg 89%
    03:00 -1°C° 0,1 mm 2 m/S 711 mmHg 90%
    04:00 -1°C° 0,1 mm 2 m/S 711 mmHg 91%
    05:00 -1°C° 0,1 mm 2 m/S 712 mmHg 92%
    06:00 -1°C° 0,1 mm 2 m/S 712 mmHg 93%
    07:00 +1°C° 0 mm 2 m/S 713 mmHg 93%
    08:00 +1°C° 0,2 mm 2 m/S 713 mmHg 93%
    09:00 +1°C° 0,2 mm 2 m/S 714 mmHg 92%
    10:00 +1°C° 0,2 mm 2 m/S 715 mmHg 92%
    11:00 +2°C° 0,2 mm 2 m/S 716 mmHg 90%
    12:00 +1°C° 0,2 mm 3 m/S 716 mmHg 87%
    13:00 +1°C° 0,2 mm 3 m/S 717 mmHg 85%
    14:00 +1°C° 0,1 mm 3 m/S 717 mmHg 86%
    15:00 0°C° 0,1 mm 3 m/S 718 mmHg 87%
    16:00 0°C° 0,1 mm 3 m/S 718 mmHg 88%
    17:00 0°C° 0,1 mm 3 m/S 719 mmHg 89%
    18:00 -1°C° 0,1 mm 3 m/S 720 mmHg 90%
    19:00 -1°C° 0,1 mm 3 m/S 720 mmHg 92%
    20:00 -1°C° 0 mm 3 m/S 721 mmHg 92%
    21:00 -1°C° 0 mm 3 m/S 721 mmHg 92%
    22:00 -1°C° 0 mm 3 m/S 722 mmHg 92%
    23:00 -2°C° 0 mm 3 m/S 722 mmHg 93%

    Morgen, 17 Dezember, Sonntag

    Zeit Temperatur Niederschläge Wind Luftdruck Luftfeuchtigkeit
    00:00 -2°C° 0 mm 3 m/S 722 mmHg 93%
    01:00 -2°C° 0 mm 3 m/S 723 mmHg 94%
    02:00 -2°C° 0,1 mm 3 m/S 723 mmHg 94%
    03:00 -2°C° 0,1 mm 3 m/S 723 mmHg 94%
    04:00 -2°C° 0,1 mm 3 m/S 723 mmHg 93%
    05:00 -2°C° 0,2 mm 3 m/S 724 mmHg 93%
    06:00 -2°C° 0,2 mm 3 m/S 724 mmHg 92%
    07:00 -3°C° 0,2 mm 4 m/S 724 mmHg 92%
    08:00 -3°C° 0,1 mm 4 m/S 725 mmHg 90%
    09:00 -3°C° 0,1 mm 4 m/S 725 mmHg 89%
    10:00 -3°C° 0,1 mm 4 m/S 726 mmHg 88%
    11:00 -2°C° 0,1 mm 4 m/S 726 mmHg 86%
    12:00 -2°C° 0,1 mm 4 m/S 726 mmHg 85%
    13:00 -2°C° 0,1 mm 4 m/S 726 mmHg 84%
    14:00 -1°C° 0 mm 3 m/S 727 mmHg 85%
    15:00 -1°C° 0 mm 3 m/S 727 mmHg 86%
    16:00 -1°C° 0 mm 3 m/S 727 mmHg 87%
    17:00 -1°C° 0,1 mm 3 m/S 728 mmHg 88%
    18:00 -2°C° 0,1 mm 2 m/S 728 mmHg 89%
    19:00 -2°C° 0,1 mm 2 m/S 729 mmHg 90%
    20:00 -2°C° 0 mm 2 m/S 729 mmHg 90%
    21:00 -2°C° 0 mm 2 m/S 729 mmHg 90%
    22:00 -2°C° 0 mm 2 m/S 730 mmHg 90%
    23:00 -2°C° 0 mm 2 m/S 729 mmHg 90%

    übermorgen, 18 Dezember, Montag

    Zeit Temperatur Niederschläge Wind Luftdruck Luftfeuchtigkeit
    00:00 -2°C° 0 mm 3 m/S 729 mmHg 89%
    01:00 -4°C° 0 mm 3 m/S 729 mmHg 88%
    02:00 -4°C° 0 mm 3 m/S 729 mmHg 86%
    03:00 -2°C° 0 mm 3 m/S 728 mmHg 85%
    04:00 -3°C° 0 mm 4 m/S 728 mmHg 83%
    05:00 -3°C° 0,8 mm 4 m/S 727 mmHg 86%
    06:00 -3°C° 0,8 mm 4 m/S 726 mmHg 89%
    07:00 -4°C° 0,8 mm 5 m/S 726 mmHg 92%
    08:00 -4°C° 0,8 mm 5 m/S 725 mmHg 91%
    09:00 -2°C° 0,8 mm 5 m/S 725 mmHg 91%
    10:00 -2°C° 0,8 mm 5 m/S 725 mmHg 91%
    11:00 -1°C° 0,6 mm 4 m/S 725 mmHg 92%
    12:00 -1°C° 0,6 mm 4 m/S 725 mmHg 94%
    13:00 -1°C° 0,6 mm 4 m/S 724 mmHg 95%
    14:00 0°C° 0,2 mm 3 m/S 725 mmHg 95%
    15:00 0°C° 0,2 mm 3 m/S 725 mmHg 95%
    16:00 +1°C° 0,2 mm 2 m/S 726 mmHg 96%
    17:00 +1°C° 0,1 mm 2 m/S 726 mmHg 96%
    18:00 -1°C° 0,1 mm 2 m/S 727 mmHg 96%
    19:00 -1°C° 0,1 mm 2 m/S 728 mmHg 96%
    20:00 +1°C° 0 mm 1 m/S 729 mmHg 96%
    21:00 +1°C° 0 mm 1 m/S 729 mmHg 96%
    22:00 +1°C° 0 mm 1 m/S 730 mmHg 96%
    23:00 0°C° 0 mm 1 m/S 730 mmHg 96%

    19 Dezember, Dienstag

    Zeit Temperatur Niederschläge Wind Luftdruck Luftfeuchtigkeit
    00:00 0°C° 0 mm 1 m/S 731 mmHg 96%
    01:00 -1°C° 0 mm 0 m/S 731 mmHg 96%
    02:00 -1°C° 0 mm 0 m/S 732 mmHg 96%
    03:00 -1°C° 0 mm 1 m/S 732 mmHg 95%
    04:00 -1°C° 0 mm 1 m/S 732 mmHg 95%
    05:00 -2°C° 0 mm 0 m/S 733 mmHg 95%
    06:00 -2°C° 0 mm 0 m/S 733 mmHg 95%
    07:00 -2°C° 0 mm 0 m/S 733 mmHg 95%
    08:00 -2°C° 0 mm 0 m/S 734 mmHg 94%
    09:00 -1°C° 0 mm 0 m/S 734 mmHg 93%
    10:00 -1°C° 0 mm 0 m/S 735 mmHg 93%
    11:00 +1°C° 0 mm 1 m/S 735 mmHg 93%
    12:00 +2°C° 0 mm 1 m/S 735 mmHg 92%
    13:00 +2°C° 0 mm 1 m/S 735 mmHg 92%
    14:00 +2°C° 0 mm 1 m/S 735 mmHg 93%
    15:00 +1°C° 0 mm 1 m/S 735 mmHg 93%
    16:00 +1°C° 0 mm 1 m/S 735 mmHg 94%
    17:00 0°C° 0 mm 1 m/S 735 mmHg 94%
    18:00 0°C° 0 mm 1 m/S 735 mmHg 94%
    19:00 -1°C° 0 mm 1 m/S 735 mmHg 94%
    20:00 -1°C° 0 mm 1 m/S 736 mmHg 93%
    21:00 -1°C° 0 mm 1 m/S 736 mmHg 93%
    22:00 0°C° 0 mm 1 m/S 736 mmHg 93%
    23:00 -1°C° 0 mm 1 m/S 736 mmHg 92%

    20 Dezember, Mittwoch

    Zeit Temperatur Niederschläge Wind Luftdruck Luftfeuchtigkeit
    00:00 -1°C° 0 mm 1 m/S 736 mmHg 91%
    01:00 -1°C° 0 mm 1 m/S 736 mmHg 91%
    02:00 -1°C° 0 mm 1 m/S 736 mmHg 90%
    03:00 -1°C° 0 mm 1 m/S 736 mmHg 89%
    04:00 0°C° 0 mm 1 m/S 736 mmHg 89%
    05:00 0°C° 0 mm 1 m/S 736 mmHg 88%
    06:00 -2°C° 0 mm 2 m/S 736 mmHg 88%
    07:00 -2°C° 0 mm 2 m/S 736 mmHg 88%
    08:00 -2°C° 0 mm 2 m/S 736 mmHg 87%
    09:00 -1°C° 0 mm 2 m/S 736 mmHg 86%
    10:00 -1°C° 0 mm 2 m/S 736 mmHg 85%
    11:00 +1°C° 0,1 mm 2 m/S 736 mmHg 87%
    12:00 +1°C° 0,1 mm 2 m/S 736 mmHg 89%
    13:00 +2°C° 0,1 mm 2 m/S 736 mmHg 90%
    14:00 +2°C° 0,1 mm 2 m/S 736 mmHg 91%
    15:00 +2°C° 0,1 mm 2 m/S 736 mmHg 93%
    16:00 +2°C° 0,1 mm 2 m/S 736 mmHg 94%
    17:00 +2°C° 0 mm 2 m/S 736 mmHg 94%
    18:00 +2°C° 0 mm 2 m/S 736 mmHg 95%
    19:00 +2°C° 0 mm 2 m/S 736 mmHg 95%
    20:00 +2°C° 0 mm 2 m/S 737 mmHg 95%
    21:00 +2°C° 0 mm 2 m/S 737 mmHg 95%
    22:00 +2°C° 0 mm 2 m/S 737 mmHg 96%
    23:00 +2°C° 0 mm 2 m/S 737 mmHg 96%

    21 Dezember, Donnerstag

    Zeit Temperatur Niederschläge Wind Luftdruck Luftfeuchtigkeit
    00:00 +2°C° 0 mm 2 m/S 737 mmHg 95%
    01:00 +2°C° 0 mm 2 m/S 737 mmHg 95%
    02:00 +2°C° 0 mm 2 m/S 737 mmHg 95%
    03:00 +2°C° 0 mm 2 m/S 736 mmHg 95%
    04:00 +2°C° 0 mm 2 m/S 736 mmHg 95%
    05:00 +2°C° 0 mm 2 m/S 736 mmHg 96%
    06:00 +3°C° 0 mm 2 m/S 736 mmHg 96%
    07:00 +3°C° 0 mm 2 m/S 736 mmHg 96%
    08:00 +3°C° 0 mm 2 m/S 736 mmHg 96%
    09:00 +3°C° 0 mm 2 m/S 736 mmHg 97%
    10:00 +4°C° 0 mm 2 m/S 736 mmHg 97%
    11:00 +4°C° 0 mm 2 m/S 736 mmHg 97%
    12:00 +5°C° 0 mm 2 m/S 736 mmHg 97%
    13:00 +6°C° 0 mm 2 m/S 735 mmHg 97%
    14:00 +5°C° 0 mm 2 m/S 735 mmHg 97%
    15:00 +5°C° 0 mm 2 m/S 735 mmHg 97%
    16:00 +5°C° 0 mm 2 m/S 735 mmHg 97%
    17:00 +5°C° 0 mm 2 m/S 735 mmHg 97%
    18:00 +5°C° 0 mm 2 m/S 735 mmHg 97%
    19:00 +3°C° 0 mm 3 m/S 735 mmHg 97%
    20:00 +4°C° 0 mm 3 m/S 735 mmHg 97%
    21:00 +4°C° 0 mm 3 m/S 735 mmHg 96%
    22:00 +4°C° 0 mm 3 m/S 735 mmHg 96%
    23:00 +4°C° 0 mm 4 m/S 735 mmHg 96%
    Mehr zeigen

    XHprof extension not loaded